EHI
0 0 0 0 1 2 1 0 0 0 0 0 0 0 0 0 0 0 0 0 0 0 0 0 0 0 0 0 0 0 0 0 0 0 0 0 0 0 0 0 0 0 0
0 0 0 0 1 2 1 0 0 0 0 0 0 0 0 0 0 0 0 0 0 0 0 0 0 0 0 0 0 0 0 0 0 0 0 0 0 0 0 0 0 0 0
0 0 0 0 1 1 1 0 0 0 0 0 0 0 0 0 0 0 0 0 0 0 0 0 0 0 0 0 0 0 0 0 0 0 0 0 0 0 0 0 0 0 0
0 0 0 0 0 0 0 0 0 0 0 0 0 0 0 0 0 0 0 0 0 0 0 0 0 0 0 0 0 0 0 0 0 0 0 0 0 0 0 0 0 0 0
0 0 0 0 0 0 0 0 0 0 0 0 0 0 0 0 0 0 0 0 0 0 0 0 0 0 0 0 0 0 0 0 0 0 0 0 0 0 0 0 0 0 0
0 0 0 0 0 0 0 0 0 0 0 0 0 0 0 0 0 0 0 0 0 0 0 0 0 0 0 0 0 0 0 0 0 0 0 0 0 0 0 0 0 0 0
0 0 0 0 0 0 0 0 0 0 0 0 0 0 0 0 0 0 0 0 0 0 0 0 0 0 0 0 0 0 0 0 0 0 0 0 0 0 0 0 0 0 0
0 0 0 0 0 0 0 0 0 0 0 0 0 0 0 0 0 0 0 0 0 0 0 0 0 0 0 0 0 0 0 0 0 0 0 0 0 0 0 0 0 0 0
0 0 0 0 0 0 0 0 0 0 0 0 0 0 0 0 0 0 0 0 0 0 0 0 0 0 0 0 0 0 0 0 0 0 0 0 0 0 0 0 0 0 0
0 0 0 0 0 0 0 0 0 0 0 0 0 0 0 0 0 0 0 0 0 0 0 0 0 0 0 0 0 0 0 0 0 0 0 0 0 0 0 0 0 0 0
0 0 0 0 0 0 0 0 0 0 0 0 0 0 0 0 0 0 0 0 0 0 0 0 0 0 0 0 0 0 0 0 0 0 0 0 0 0 0 0 0 0 0
0 0 0 0 0 0 0 0 0 0 0 0 0 0 0 0 0 0 0 0 0 0 0 0 0 0 0 0 0 0 0 0 0 0 0 0 0 0 0 0 0 0 0
0 0 0 0 0 0 0 0 0 0 0 0 0 0 0 0 0 0 0 0 0 0 0 0 0 0 0 0 0 0 0 0 0 0 0 0 0 0 0 0 0 0 0
0 0 0 0 0 0 0 0 0 0 0 0 0 0 0 0 0 0 0 0 0 0 0 0 0 0 0 0 0 0 0 0 0 0 0 0 0 0 0 0 0 0 0
0 0 0 0 0 0 0 0 0 0 0 0 0 0 0 0 0 0 0 0 0 0 0 0 0 0 0 0 0 0 0 0 0 0 0 0 0 0 0 0 0 0 0
0 0 0 0 0 0 0 0 0 0 0 0 0 0 0 0 0 0 0 0 0 0 0 0 0 0 0 0 0 0 0 0 0 0 0 0 0 0 0 0 0 0 0
0 0 0 0 0 0 0 0 0 0 0 0 0 0 0 0 0 0 0 0 0 0 0 0 0 0 0 0 0 0 0 0 0 0 0 0 0 0 0 0 0 0 0
0 0 0 0 0 0 0 0 0 0 0 0 0 0 0 0 0 0 0 0 0 0 0 0 0 0 0 0 0 0 0 0 0 0 0 0 0 0 0 0 0 0 0
0 0 0 0 0 0 0 0 0 0 0 0 0 0 0 0 0 0 0 0 0 0 0 0 0 0 0 0 0 0 0 0 0 0 0 0 0 0 0 0 0 0 0
0 0 0 0 0 0 0 0 0 0 0 0 0 0 0 0 0 0 0 0 0 0 0 0 0 0 0 0 0 0 0 0 0 0 0 0 0 0 0 0 0 0 0
0 0 0 0 0 0 0 0 0 0 0 0 0 0 0 0 0 0 0 0 0 0 0 0 0 0 0 0 0 0 0 0 0 0 0 0 0 0 0 0 0 0 0
0 0 0 0 0 0 0 0 0 0 0 0 0 0 0 0 0 0 0 0 0 0 0 0 0 0 0 0 0 0 0 0 0 0 0 0 0 0 0 0 0 0 0
0 0 0 0 0 0 0 0 0 0 0 0 0 0 0 0 0 0 0 0 0 0 0 0 0 0 0 0 0 0 0 0 0 0 0 0 0 0 0 0 0 0 0
0 0 0 0 0 0 0 0 0 0 0 0 0 0 0 0 0 0 0 0 0 0 0 0 0 0 0 0 0 0 0 0 0 0 0 0 0 0 0 0 0 0 0
0 0 0 0 0 0 0 0 0 0 0 0 0 0 0 0 0 0 0 0 0 0 0 0 0 0 0 0 0 0 0 0 0 0 0 0 0 0 0 0 0 0 0
0 0 0 0 0 0 0 0 0 0 0 0 0 0 0 0 0 0 0 0 0 0 0 0 0 0 0 0 0 0 0 0 0 0 0 0 0 0 0 0 0 0 0
Wind_Speed
2 2 2 2 2 2 2 2 2 2 2 3 3 3 4 4 4 4 5 5 5 5 5 5 5 4 3 3 3 3 4 4 7 6 4 3 4 4 5 4 4 5 6
1 1 1 1 1 2 2 2 2 2 2 3 3 3 4 4 4 5 5 5 6 6 6 6 6 4 5 4 4 4 5 5 6 8 5 4 5 5 5 5 5 5 5
0 0 1 1 1 2 2 2 2 2 3 3 3 4 4 4 4 4 5 5 5 6 6 6 6 5 5 4 5 4 4 5 4 6 6 4 4 4 5 5 5 4 5
1 1 1 1 1 2 2 2 2 2 3 3 4 4 4 4 4 4 4 4 4 5 5 5 6 6 6 5 5 5 4 4 4 5 6 5 4 4 4 4 4 4 4
1 1 2 1 1 1 1 2 2 2 2 2 3 3 4 4 4 4 4 4 4 4 4 5 5 7 8 7 6 5 5 5 5 5 6 5 5 4 4 4 5 4 5
1 2 2 2 1 1 2 2 2 2 2 2 2 3 3 3 5 6 5 4 4 4 5 5 5 6 7 9 11 10 9 7 7 6 6 7 7 5 4 5 5 5 5
1 2 2 2 2 2 2 2 2 2 2 3 3 3 3 4 7 7 7 4 4 4 4 4 5 5 6 4 7 9 9 11 12 9 8 8 7 6 6 7 6 6 7
2 2 2 2 2 2 2 2 2 2 2 3 4 4 4 5 7 7 7 5 4 4 4 5 5 5 5 5 5 6 6 7 8 7 7 8 7 7 7 7 7 7 6
2 2 3 2 2 2 3 3 3 3 3 3 3 4 4 5 6 7 7 3 3 4 4 5 5 5 8 9 6 6 6 6 7 9 10 10 11 12 10 6 6 6 7
2 3 3 3 3 3 3 3 3 3 3 3 4 4 4 4 6 7 6 3 3 4 4 4 7 7 9 10 6 5 6 6 5 6 7 8 8 8 10 7 6 7 6
3 3 3 3 3 3 3 3 3 3 3 3 4 4 4 4 6 7 7 3 4 4 4 4 4 8 9 10 9 6 7 7 5 5 5 5 4 4 5 5 5 6 7
3 3 3 3 3 3 2 3 2 3 3 4 4 4 3 4 4 6 8 7 6 4 4 4 4 8 9 10 8 8 10 8 4 4 4 5 5 4 4 4 5 6 7
3 3 3 3 3 3 3 3 3 2 2 3 3 3 4 3 3 6 8 8 8 5 4 6 8 9 9 7 8 9 7 4 3 4 5 5 4 4 4 4 4 5 6
3 3 3 3 3 3 3 3 2 2 3 3 3 4 4 3 3 3 4 4 6 5 4 6 8 8 7 7 6 6 4 3 4 4 4 4 3 3 4 3 4 4 4
3 3 3 3 3 3 3 3 3 3 4 4 3 3 4 4 5 8 5 4 3 3 3 2 2 3 3 3 3 3 3 3 4 4 4 4 4 4 4 3 3 3 5
3 3 2 3 3 3 3 4 5 6 8 9 8 7 6 8 10 10 10 9 8 7 4 2 3 3 3 4 4 4 3 4 4 4 4 4 4 4 4 3 3 4 4
3 3 3 3 3 3 3 4 4 6 7 8 9 10 9 10 11 10 10 9 8 7 3 3 3 3 3 4 4 4 4 4 3 4 4 4 4 4 4 4 4 4 4
3 4 3 3 3 3 4 4 4 4 5 5 7 9 10 11 11 10 10 7 5 4 3 3 4 4 3 4 4 4 4 4 3 4 4 4 4 4 4 4 4 4 4
3 3 3 3 3 3 4 4 4 4 4 5 4 6 9 9 9 9 8 3 3 3 3 3 4 4 4 4 4 4 4 4 4 4 4 4 4 4 5 5 4 7 6
3 5 4 3 3 3 3 3 3 4 4 4 4 5 5 5 4 5 4 3 3 3 3 3 3 3 3 3 3 3 4 4 4 4 4 4 4 4 5 5 5 5 5
3 3 5 4 3 3 3 3 3 3 4 4 4 6 8 4 4 4 4 3 3 4 4 4 3 3 3 3 3 4 4 4 4 4 4 4 4 4 4 5 5 5 5
2 2 3 3 3 3 3 3 3 3 4 5 5 6 9 5 4 4 4 4 4 4 3 3 4 3 3 3 4 4 5 5 5 4 5 4 4 5 5 5 5 5 5
2 3 3 3 3 5 4 3 3 4 4 4 5 4 4 4 4 4 4 4 4 4 4 3 4 4 4 3 3 4 5 5 5 5 5 5 4 5 5 5 6 5 6
2 3 3 3 3 3 3 3 3 4 4 4 4 4 4 4 4 5 5 4 4 4 4 4 4 6 7 5 4 4 4 5 5 5 6 6 5 5 5 5 5 6 6
3 3 3 3 3 3 3 4 4 4 4 4 4 5 4 4 5 5 5 4 5 5 5 5 4 5 6 7 7 6 8 11 10 6 5 5 6 6 5 5 5 5 5
3 3 3 3 3 3 3 4 4 4 4 4 4 4 4 4 5 5 5 5 4 4 5 4 5 6 7 6 7 9 11 11 11 10 6 4 5 4 4 4 4 4 4
Wind_Direction
216 222 224 235 245 242 244 247 249 260 256 252 256 255 253 250 243 238 240 240 240 246 248 242 246 245 247 253 249 242 241 232 253 269 269 271 268 271 272 259 256 250 253
231 215 224 234 243 250 255 263 262 264 264 262 262 260 258 256 248 240 242 243 239 240 244 243 245 245 244 251 246 245 244 239 244 263 268 272 268 265 267 262 269 264 252
319 237 241 242 253 260 262 265 262 257 263 267 259 257 257 254 251 248 244 243 241 243 244 244 243 241 242 251 248 247 249 253 247 255 267 267 270 267 272 271 272 267 268
337 299 274 262 263 274 274 264 267 269 268 271 267 262 258 254 253 254 251 250 248 249 248 249 248 240 239 245 248 245 250 254 253 255 262 261 264 266 264 261 273 262 267
342 314 293 303 313 301 296 289 288 283 281 280 280 282 275 260 251 249 244 247 249 252 253 252 254 252 251 254 250 242 240 245 248 252 257 263 260 260 258 263 266 271 269
343 311 314 327 328 319 306 303 302 304 303 300 287 280 274 272 277 273 266 250 251 253 258 260 262 259 262 267 267 263 253 245 245 249 255 256 259 260 263 268 269 276 274
339 329 327 326 325 318 311 315 308 310 313 306 292 280 273 273 276 277 277 269 254 254 257 260 265 266 267 259 270 274 269 266 259 253 253 256 258 253 253 258 259 263 269
340 330 326 322 313 311 305 301 300 305 304 299 293 285 280 274 275 277 279 273 261 255 254 252 254 262 264 263 260 262 261 263 263 258 252 257 263 262 250 253 260 268 271
333 330 327 319 306 305 302 304 307 309 306 299 293 286 281 280 275 277 280 268 262 262 259 259 257 256 269 272 262 260 266 270 277 273 269 269 270 272 270 263 257 261 270
320 321 320 316 305 299 299 303 304 301 294 294 292 290 283 279 279 281 281 266 261 262 264 266 268 268 270 273 261 254 260 266 272 278 275 274 272 274 275 260 250 253 266
317 317 315 310 303 296 295 297 302 301 302 296 290 290 283 283 290 287 284 274 261 262 265 265 265 273 275 277 273 262 265 273 266 267 272 273 269 262 258 252 249 249 254
315 311 310 309 305 307 303 300 299 299 300 295 293 294 290 288 291 290 289 287 282 265 264 264 267 279 282 283 279 276 280 285 272 265 266 267 266 261 261 256 252 251 252
312 310 310 312 310 308 303 300 300 294 289 290 290 291 294 295 293 294 292 290 289 276 267 275 279 280 283 285 287 289 287 273 263 263 263 264 261 260 258 258 258 258 262
307 311 314 314 313 312 303 293 293 291 288 288 287 288 292 295 293 293 292 293 292 285 278 278 282 286 285 283 285 286 277 263 258 258 265 266 266 263 263 257 259 260 269
305 307 310 308 306 304 300 290 286 272 274 283 279 278 285 288 288 294 295 290 282 271 282 267 263 271 271 274 273 271 274 273 267 263 263 267 266 264 266 263 256 262 261
302 305 304 305 303 302 303 307 301 294 295 292 290 288 286 287 296 297 297 300 296 288 283 265 264 265 267 272 274 276 274 275 274 270 266 262 264 266 269 270 263 259 262
291 295 296 300 301 300 300 302 307 311 305 303 300 299 296 299 302 302 302 302 302 303 286 277 273 270 270 272 272 274 279 277 276 273 272 269 265 263 262 264 263 258 261
288 286 293 289 292 294 295 295 296 301 308 309 310 309 309 308 309 309 308 306 302 302 278 274 276 276 274 273 271 272 277 278 274 274 273 269 265 264 262 258 259 259 261
290 286 287 287 287 289 293 294 295 297 299 305 312 316 318 317 319 319 317 303 292 289 285 279 277 276 275 276 275 274 274 275 276 274 272 268 265 263 261 259 257 262 263
289 292 300 297 294 294 294 296 298 300 303 306 308 311 318 321 322 323 322 312 300 293 290 288 288 288 286 285 285 284 283 279 279 273 271 268 265 259 257 258 257 257 259
293 292 300 304 298 296 297 297 298 300 301 302 302 307 315 314 308 308 309 308 300 296 294 291 289 289 287 287 286 283 280 278 273 273 270 269 265 263 261 259 259 258 260
299 298 301 300 300 300 302 300 301 300 300 300 304 310 315 314 310 306 305 304 301 295 292 290 287 284 282 282 282 281 279 279 277 274 274 269 267 263 261 257 255 255 257
306 308 310 305 299 299 305 302 299 297 297 299 304 308 311 309 308 304 301 301 300 298 295 290 287 286 284 281 276 273 275 277 276 273 274 273 268 265 261 258 255 252 253
300 298 297 299 301 298 297 298 297 297 301 303 303 303 303 303 302 300 300 299 298 295 290 284 280 281 283 284 281 276 274 277 277 270 266 267 266 263 259 258 255 251 252
306 302 300 298 300 300 299 299 301 305 306 305 305 305 304 303 302 301 300 298 296 292 289 286 283 283 284 284 285 284 284 285 286 284 267 260 260 259 257 256 255 254 250
319 315 311 308 305 303 302 303 305 305 304 304 304 303 303 303 302 302 302 300 301 298 295 290 288 289 289 287 286 289 292 292 290 288 281 265 258 258 256 252 250 246 242